SCP
0 0 0 0 0 0 0 0 -0 -0 0 0 0 0 0 0 0 -0 0 -0 -0 -0 0 0 0 0 0 0 0 0 0 -0 -0 -0 -0 -0 -0 -0 -0 -0 0 0 -0 -0 -0 -0 -0 -0 -0
0 0 0 0 0 0 -0 0 -0 0 0 0 0 0 0 0 0 0 0 0 -0 -0 0 0 0 0 0 0 0 0 0 -0 -0 -0 -0 -0 -0 -0 -0 -0 -0 -0 -0 -0 -0 -0 -0 -0 -0
0 0 0 0 0 -0 -0 -0 0 0 0 0 0 0 0 0 0 0 0 -0 -0 0 0 0 0 0 1 0 0 0 0 -0 -0 -0 -0 -0 -0 -0 -0 -0 -0 -0 0 -0 -0 -0 -0 0 0
0 0 0 0 0 -0 0 0 0 0 0 0 0 0 0 0 0 0 -0 -0 -0 0 0 0 0 0 0 0 0 0 0 -0 -0 -0 -0 -0 -0 -0 -0 -0 -0 -0 -0 -0 -0 -0 -0 -0 0
0 0 0 0 0 0 0 0 0 0 0 0 0 0 1 0 0 0 0 0 -0 0 0 0 0 0 0 1 0 0 0 -0 -0 -0 -0 -0 -0 -0 -0 -0 -0 -0 -0 -0 -0 -0 -0 -0 -0
0 0 0 0 0 0 0 0 0 0 0 0 0 0 1 0 -0 0 0 0 0 0 0 0 0 0 0 1 0 0 0 -0 -0 -0 -0 -0 -0 -0 -0 -0 -0 -0 -0 -0 -0 -0 -0 -0 -0
0 0 0 0 0 0 -0 0 0 0 0 0 0 0 0 0 0 0 0 0 0 0 0 0 0 0 0 1 0 0 0 0 -0 -0 -0 -0 -0 -0 -0 -0 -0 -0 -0 -0 -0 0 -0 -0 -0
0 0 0 0 0 0 -0 0 0 0 0 0 0 0 0 0 0 0 1 1 1 1 0 0 0 0 0 0 0 0 0 0 0 -0 -0 -0 -0 -0 -0 -0 -0 -0 -0 -0 -0 -0 0 -0 -0
0 0 0 0 0 0 0 0 0 0 0 0 0 0 0 0 1 1 1 2 2 1 1 0 0 0 0 0 0 0 0 0 0 0 -0 0 0 0 0 0 0 -0 0 0 0 0 0 0 0
0 0 0 0 0 0 -0 -0 0 0 0 0 0 0 0 1 1 1 1 1 1 1 1 0 0 0 0 0 0 0 0 0 0 0 0 0 0 0 0 0 0 0 0 0 0 0 0 0 0
0 0 0 0 0 0 0 0 0 0 0 0 0 0 0 0 1 1 1 1 1 1 1 1 0 0 0 0 0 0 0 0 0 0 0 0 0 0 0 0 0 0 0 0 0 0 0 0 0
0 0 0 0 0 0 0 0 0 0 0 0 0 0 0 0 0 0 0 1 1 1 1 1 1 1 0 0 0 0 0 0 0 0 0 0 0 0 0 0 0 0 0 0 0 0 0 0 0
0 0 0 0 0 0 0 0 0 0 0 0 0 0 0 0 0 0 0 0 1 2 1 1 1 1 1 1 0 0 0 0 0 0 0 0 0 0 0 0 0 0 0 0 0 0 0 0 0
0 0 0 0 0 0 0 0 0 0 0 0 0 0 0 0 0 0 0 0 1 2 1 1 1 1 1 1 1 0 0 0 0 0 0 0 0 0 0 0 0 0 0 0 0 0 0 0 0
0 0 0 0 0 0 0 0 0 0 0 0 0 0 0 0 0 0 0 0 0 1 2 1 1 1 1 1 1 1 1 0 0 0 0 0 0 0 0 0 0 0 0 0 0 0 0 0 0
0 0 0 0 0 0 0 0 0 0 0 0 0 0 0 0 0 0 0 0 0 1 2 2 2 2 1 1 1 1 1 1 0 1 1 0 0 0 0 0 0 0 0 0 0 0 0 0 0
0 0 0 0 0 0 0 0 0 0 0 0 0 0 0 0 0 0 0 0 0 1 2 3 2 2 2 1 1 1 0 0 0 0 0 0 0 0 0 0 0 0 0 0 0 0 0 0 0
0 0 0 0 0 0 0 0 0 0 0 0 0 0 0 0 0 0 0 0 0 0 2 3 3 3 2 2 1 1 0 0 0 0 0 0 0 0 0 0 0 0 0 0 0 0 0 0 0
0 0 0 0 0 0 0 0 0 0 0 0 0 0 0 0 0 0 0 0 0 0 2 3 4 3 3 3 2 1 1 1 0 0 0 0 0 0 0 0 0 0 0 0 0 0 0 0 0
0 0 0 0 0 0 0 0 0 0 0 0 0 0 0 0 0 0 0 0 0 0 2 4 4 4 3 3 2 2 1 1 1 0 0 1 0 1 0 0 0 0 0 0 0 0 0 0 0
0 0 0 0 0 0 0 0 0 0 0 0 0 0 0 0 0 0 0 0 0 0 0 4 4 4 3 3 2 1 1 1 1 0 0 0 0 0 0 0 0 0 0 0 0 0 0 0 0
0 0 0 0 0 0 0 0 0 0 0 0 0 0 0 0 0 0 0 0 0 0 0 4 4 3 2 2 2 1 1 1 1 1 0 0 0 0 0 0 0 0 0 0 0 0 0 0 0
0 0 0 0 0 0 0 0 0 0 0 0 0 0 0 0 0 0 0 0 0 0 4 5 4 3 2 2 2 1 1 0 0 0 0 0 0 0 0 0 0 0 0 0 0 0 0 0 0
0 0 0 0 0 0 0 0 0 0 0 0 0 0 0 0 0 0 0 0 0 1 4 4 3 3 2 1 1 0 0 0 0 0 0 0 0 0 0 0 0 0 0 0 0 0 0 0 0
0 0 0 0 0 0 0 0 0 0 0 0 0 0 0 0 0 0 0 0 0 1 3 2 2 2 1 0 0 0 0 0 0 0 0 0 0 0 0 0 0 0 0 0 0 0 0 0 0
0 0 0 0 0 0 0 0 0 0 0 0 0 0 0 0 0 0 0 0 0 2 1 1 1 0 0 0 0 0 0 0 0 0 0 0 0 0 0 0 0 0 0 0 0 0 0 0 0
0 0 0 0 0 0 0 0 0 0 0 0 0 0 0 0 -0 0 0 0 2 1 0 0 0 0 0 0 0 0 0 0 0 0 0 0 0 0 0 0 0 0 0 0 0 0 0 0 0
0 0 0 0 0 0 0 0 0 0 0 0 0 0 0 0 0 0 0 0 1 2 0 0 0 0 0 0 0 0 0 0 0 0 0 0 0 0 0 0 0 0 0 0 0 0 0 0 0
0 0 0 0 0 0 0 0 0 0 0 0 0 0 0 0 0 0 0 0 1 1 0 0 0 0 0 0 0 0 0 0 0 0 0 0 0 0 0 0 0 0 0 0 0 0 0 0 0
0 0 0 0 0 0 0 0 0 0 0 0 0 -0 0 0 0 0 0 1 0 0 0 0 0 0 0 0 0 0 0 0 0 0 0 0 0 0 0 0 0 0 0 0 0 0 0 0 0
Wind_Speed_500mb
14 9 19 24 6 6 11 19 24 20 10 33 51 44 28 16 14 11 48 33 30 35 43 43 41 39 40 40 39 36 31 24 20 18 18 18 18 17 16 16 16 16 15 14 14 13 14 18 19
13 13 19 12 6 1 15 17 18 10 22 39 52 50 22 10 37 48 42 34 28 31 40 39 40 38 38 39 39 36 33 25 21 18 18 17 16 15 14 13 13 13 13 12 11 11 12 14 16
12 14 7 8 7 12 11 12 6 15 33 21 16 41 20 25 53 52 38 39 33 32 36 37 38 38 39 39 38 37 34 28 24 21 18 17 16 14 12 10 9 10 10 11 10 9 9 10 14
10 8 14 1 20 25 26 31 4 14 12 14 51 18 39 40 37 45 43 34 31 30 34 35 35 37 37 37 39 37 34 30 26 24 19 17 15 14 12 10 8 7 8 9 9 8 7 7 9
15 14 4 8 18 26 26 24 13 7 16 6 11 17 24 36 39 47 45 31 25 25 31 33 33 35 36 38 39 37 34 31 29 26 21 17 15 14 13 10 8 6 6 4 6 5 4 4 6
12 7 4 10 24 30 23 40 14 2 18 19 24 24 21 39 42 48 40 28 21 19 26 26 32 34 37 39 40 39 36 33 32 29 24 20 17 15 13 12 10 8 6 4 2 3 3 2 3
19 1 13 19 33 39 25 15 10 5 11 12 22 12 40 50 43 46 40 34 28 23 20 25 28 37 39 40 41 40 38 37 35 32 28 23 20 18 15 14 13 10 8 7 5 3 2 3 4
45 6 17 17 24 34 21 6 22 9 13 9 16 11 32 63 55 48 45 38 37 34 27 25 30 39 43 44 44 42 42 40 38 36 32 29 26 23 20 18 16 13 11 10 10 9 8 7 8
41 6 19 21 29 30 48 18 23 6 18 12 23 33 61 65 55 51 47 40 40 37 33 31 31 40 43 43 45 46 45 44 42 40 37 35 32 29 26 23 20 18 16 15 14 12 12 11 11
20 9 16 21 35 24 38 32 23 13 17 3 52 59 56 55 51 49 45 45 42 38 38 36 35 40 44 44 45 48 50 50 49 46 44 41 38 34 30 28 25 23 21 20 18 17 16 15 15
39 26 20 43 64 52 46 37 26 6 4 22 26 51 49 49 48 43 38 35 30 37 39 37 40 41 44 44 44 48 50 53 53 52 49 45 43 40 36 33 34 30 27 25 23 22 20 20 19
18 37 42 47 76 52 18 53 26 22 22 24 47 49 53 54 54 47 42 43 48 53 45 37 37 45 43 42 43 38 44 54 56 56 53 50 47 44 43 35 29 27 26 31 30 27 20 15 15
35 32 53 62 69 60 55 34 25 36 39 40 34 20 32 54 47 41 38 48 56 64 56 45 39 43 47 44 39 39 38 41 53 55 53 49 48 48 47 41 37 35 33 26 26 22 18 21 19
33 43 49 60 57 60 25 29 35 41 41 47 48 44 26 35 43 35 32 37 46 59 64 54 46 39 52 50 47 47 44 36 36 49 48 49 47 45 48 44 42 41 36 29 21 20 23 26 30
52 30 31 38 35 20 41 22 23 46 47 56 65 56 52 40 52 55 51 46 43 51 59 56 52 43 52 58 53 50 45 38 39 41 42 43 46 47 44 45 46 41 40 36 32 32 32 32 34
10 12 20 28 20 28 21 38 14 39 48 58 67 68 62 60 62 53 51 59 52 43 60 58 59 54 47 54 57 57 54 49 49 48 45 45 44 44 44 45 44 40 36 38 39 41 41 40 36
11 18 24 19 20 15 18 43 21 49 58 49 65 75 74 77 66 73 60 44 46 41 49 60 66 63 52 48 50 53 50 52 50 58 55 54 46 41 41 39 38 41 39 34 36 36 34 36 40
27 21 15 24 13 19 34 48 29 54 65 62 66 63 59 78 77 63 66 51 40 41 39 62 65 68 58 52 49 50 47 47 48 51 51 56 48 46 44 43 41 40 38 40 36 35 38 40 41
27 21 36 34 29 37 39 39 23 33 45 47 61 72 54 50 46 81 65 52 42 50 43 63 75 73 65 60 55 55 55 53 49 50 51 45 48 48 44 44 40 37 37 36 32 35 35 37 40
38 40 46 37 32 22 31 34 23 18 17 24 35 36 29 32 47 32 56 61 53 52 49 57 74 71 69 63 58 59 60 57 52 52 51 48 46 44 42 41 42 41 42 40 39 37 38 41 43
46 44 47 44 22 32 22 21 18 36 38 42 35 35 35 44 55 51 55 69 67 60 63 61 67 71 76 69 64 61 56 52 48 51 50 50 47 51 50 50 46 41 38 38 39 39 41 43 41
47 43 39 43 27 33 22 29 22 18 27 24 39 51 53 65 75 74 60 74 72 65 62 74 68 72 81 76 73 70 73 70 65 61 53 50 57 55 54 49 48 44 42 40 39 38 37 37 40
54 22 42 39 31 33 27 12 41 29 32 31 23 52 64 82 86 87 65 79 78 73 74 80 78 80 85 82 78 70 69 68 64 58 56 59 57 54 50 52 49 45 40 38 36 34 35 36 39
44 37 46 38 21 24 40 35 50 24 30 23 28 56 58 56 53 71 86 74 89 80 76 78 81 81 83 82 76 68 69 74 71 68 65 66 59 57 51 48 44 39 36 34 33 35 36 38 41
45 44 29 25 28 32 40 25 36 21 37 41 38 52 63 56 33 58 53 81 92 83 82 82 82 85 82 75 67 65 68 71 71 70 71 65 57 50 48 43 36 33 31 34 34 37 39 40 41
42 47 31 38 35 37 39 34 38 40 36 64 67 63 66 67 75 63 59 79 91 93 86 85 85 84 77 64 57 60 66 70 70 70 71 65 55 49 43 40 33 31 33 33 35 37 38 42 45
38 43 46 45 37 16 22 26 34 48 42 36 52 74 78 69 79 42 45 66 84 85 79 84 85 75 67 60 52 63 68 74 71 74 62 59 55 48 40 37 34 30 33 35 36 36 39 42 44
45 20 23 13 41 53 40 38 20 38 52 52 44 49 69 75 50 51 60 61 66 75 81 82 80 72 60 57 58 66 74 73 78 69 66 61 56 48 38 33 31 31 32 34 35 39 42 45 48
30 40 35 25 23 13 34 41 39 39 28 18 16 55 48 49 52 52 63 67 70 79 85 81 74 66 56 56 59 69 73 74 76 72 66 59 49 39 33 29 26 26 31 34 38 40 42 46 46
29 34 34 31 42 10 25 19 18 40 51 38 28 39 50 27 12 13 49 74 81 86 86 82 72 64 57 58 65 71 78 79 75 70 63 52 42 33 26 21 22 27 29 33 36 37 42 43 39
Wind_Direction_500mb
284 280 302 316 38 77 259 254 227 278 70 82 87 94 100 71 152 169 154 186 187 159 166 167 168 167 165 164 164 163 159 158 153 144 129 123 120 118 112 107 106 105 106 108 110 112 114 114 112
286 308 290 265 121 288 278 251 264 225 119 98 100 95 74 77 107 130 150 165 178 163 167 166 167 169 167 166 167 167 168 168 168 159 143 131 129 129 123 117 110 108 110 109 107 107 106 111 115
283 293 291 163 205 208 241 286 184 88 99 96 84 95 89 115 127 140 158 165 164 163 163 164 168 170 170 169 169 171 173 175 178 172 157 143 142 145 141 134 121 109 110 116 120 115 118 122 119
298 267 251 189 262 261 251 286 252 87 51 48 101 73 113 132 139 150 163 164 156 150 162 167 171 172 172 172 172 176 177 179 183 180 172 158 155 157 163 158 138 126 124 122 121 128 130 133 127
292 271 251 257 262 270 273 252 47 84 125 14 79 120 96 122 133 143 158 168 162 149 159 170 176 176 177 176 176 178 181 182 185 187 182 175 170 173 177 174 163 156 135 132 131 129 137 149 139
279 248 320 276 275 276 285 253 128 336 157 174 105 111 113 137 139 139 153 169 183 165 160 167 180 183 183 182 182 183 185 187 188 191 193 192 188 191 190 190 187 181 177 179 167 144 164 208 201
232 284 254 266 271 290 301 175 105 223 132 171 149 118 142 149 149 146 152 174 188 198 195 187 187 189 189 188 189 189 191 193 193 194 201 203 204 205 206 204 204 198 200 204 210 219 230 228 249
262 144 273 267 278 282 298 216 164 198 56 72 171 152 167 155 151 150 153 173 187 199 211 201 199 194 194 193 195 196 197 200 198 199 206 212 215 216 219 218 220 216 218 219 222 221 231 239 247
272 268 255 261 271 274 293 271 169 158 94 48 91 124 165 152 154 156 160 174 191 206 216 212 206 198 198 199 200 201 203 204 205 204 209 216 221 224 226 230 229 230 230 234 240 240 241 248 260
237 236 241 249 265 278 307 327 180 188 132 120 108 119 137 152 163 167 175 188 204 220 222 218 209 204 200 204 206 208 207 208 209 211 212 216 223 229 233 237 241 240 239 242 245 250 255 263 267
241 243 252 263 270 284 296 311 305 288 280 176 176 151 159 170 176 186 203 217 233 224 216 214 208 205 205 207 210 213 214 214 214 215 215 216 222 228 232 235 238 244 247 247 248 252 259 262 260
269 263 249 260 261 271 287 299 301 286 278 265 226 217 199 180 185 194 205 224 225 221 222 215 212 205 202 204 204 209 217 220 219 218 218 217 219 227 233 239 244 248 250 256 254 251 251 253 252
264 267 271 268 270 266 275 283 266 283 283 290 303 230 197 202 196 208 227 226 224 221 223 218 214 207 201 205 214 218 220 222 224 222 223 219 220 224 232 234 239 246 251 253 259 247 258 267 268
258 263 265 267 268 273 260 265 285 274 291 293 294 293 246 211 199 211 227 247 246 222 220 221 211 208 204 206 214 218 223 216 215 216 221 221 217 219 225 232 237 243 245 257 250 255 251 258 260
258 270 282 270 270 272 295 278 256 278 270 277 283 284 276 261 243 245 251 240 244 210 222 220 212 205 205 209 212 218 227 216 218 212 212 217 217 224 228 234 237 239 244 247 245 237 246 241 247
293 283 256 254 268 280 273 267 274 266 241 248 260 271 272 264 256 243 238 247 230 212 213 216 218 208 205 213 212 212 222 214 215 218 217 216 220 225 230 232 240 241 239 236 236 233 237 242 253
223 243 244 253 218 239 243 265 245 251 253 244 244 246 250 254 254 241 240 212 209 227 212 215 219 210 206 216 218 215 217 220 209 212 217 218 220 221 224 227 234 234 235 244 246 239 239 248 257
231 243 250 251 251 243 244 252 247 236 232 240 247 250 250 249 250 240 224 215 225 223 220 219 221 211 209 211 214 213 219 222 217 207 210 209 215 222 225 223 226 230 230 239 242 241 247 254 264
256 253 242 243 232 240 260 268 255 256 234 229 232 244 251 264 285 245 225 220 217 219 226 220 217 211 207 206 209 214 217 217 216 204 203 204 209 216 219 224 221 222 227 236 240 245 251 268 279
235 254 265 275 275 245 246 260 263 276 247 232 231 233 263 293 278 235 212 205 210 219 213 214 214 218 211 216 217 223 212 208 214 206 204 200 197 205 216 216 221 224 219 218 228 242 258 266 272
229 233 242 249 271 278 269 275 281 279 284 277 274 275 262 268 276 277 214 212 209 209 209 205 210 222 216 218 217 212 208 209 211 208 206 202 199 204 214 216 214 214 217 227 239 249 259 266 275
236 232 245 247 238 246 241 271 262 245 264 278 264 264 263 264 263 261 223 209 206 214 210 214 207 220 222 221 221 221 210 208 213 213 210 207 205 207 212 215 216 224 232 236 246 256 266 272 279
246 218 244 255 254 263 257 253 252 246 253 249 264 260 255 254 257 256 236 222 217 216 214 214 212 216 221 217 222 221 211 215 216 207 208 209 210 214 217 221 221 224 235 245 254 261 269 277 282
256 233 248 258 249 244 243 227 258 237 239 245 247 263 263 258 258 255 251 231 218 209 210 211 211 212 214 216 219 226 217 214 210 211 211 206 208 209 213 215 220 230 241 251 259 270 277 281 284
229 230 244 233 234 238 243 238 242 231 227 242 248 251 260 273 288 255 256 224 210 203 208 210 211 213 215 216 219 223 221 219 218 212 206 203 206 207 213 223 228 238 247 261 269 276 281 286 291
229 233 229 235 233 234 239 234 232 250 248 263 264 259 263 271 277 286 236 220 200 202 205 211 211 214 216 217 222 222 218 217 217 214 213 205 204 209 214 224 236 242 258 272 281 282 286 290 292
228 229 231 242 249 246 232 230 236 247 248 243 244 253 262 265 271 241 195 199 196 198 206 215 214 214 216 222 222 215 216 217 215 202 197 201 207 211 215 229 239 254 268 274 281 288 290 292 295
232 238 247 252 233 238 235 231 219 235 243 246 247 247 246 251 261 227 207 201 205 206 210 213 215 213 216 224 219 213 212 207 198 196 196 201 205 210 219 231 245 262 274 281 288 293 297 299 299
232 237 235 242 213 221 234 240 222 241 249 233 265 249 243 248 244 219 202 206 207 208 210 205 206 208 214 212 207 204 200 196 197 199 200 203 204 210 222 239 259 273 280 290 294 293 297 299 302
286 268 264 235 247 227 231 237 231 229 243 247 254 270 282 275 231 252 219 203 202 208 206 204 207 208 207 201 196 193 190 194 197 201 201 201 204 214 231 250 269 280 287 287 291 298 300 304 311
Wind_Speed_850mb
14 9 19 24 6 6 11 19 24 20 10 33 51 44 28 16 14 11 48 33 30 35 43 43 41 39 40 40 39 36 31 24 20 18 18 18 18 17 16 16 16 16 15 14 14 13 14 18 19
13 13 19 12 6 1 15 17 18 10 22 39 52 50 22 10 37 48 42 34 28 31 40 39 40 38 38 39 39 36 33 25 21 18 18 17 16 15 14 13 13 13 13 12 11 11 12 14 16
12 14 7 8 7 12 11 12 6 15 33 21 16 41 20 25 53 52 38 39 33 32 36 37 38 38 39 39 38 37 34 28 24 21 18 17 16 14 12 10 9 10 10 11 10 9 9 10 14
10 8 14 1 20 25 26 31 4 14 12 14 51 18 39 40 37 45 43 34 31 30 34 35 35 37 37 37 39 37 34 30 26 24 19 17 15 14 12 10 8 7 8 9 9 8 7 7 9
15 14 4 8 18 26 26 24 13 7 16 6 11 17 24 36 39 47 45 31 25 25 31 33 33 35 36 38 39 37 34 31 29 26 21 17 15 14 13 10 8 6 6 4 6 5 4 4 6
12 7 4 10 24 30 23 40 14 2 18 19 24 24 21 39 42 48 40 28 21 19 26 26 32 34 37 39 40 39 36 33 32 29 24 20 17 15 13 12 10 8 6 4 2 3 3 2 3
19 1 13 19 33 39 25 15 10 5 11 12 22 12 40 50 43 46 40 34 28 23 20 25 28 37 39 40 41 40 38 37 35 32 28 23 20 18 15 14 13 10 8 7 5 3 2 3 4
45 6 17 17 24 34 21 6 22 9 13 9 16 11 32 63 55 48 45 38 37 34 27 25 30 39 43 44 44 42 42 40 38 36 32 29 26 23 20 18 16 13 11 10 10 9 8 7 8
41 6 19 21 29 30 48 18 23 6 18 12 23 33 61 65 55 51 47 40 40 37 33 31 31 40 43 43 45 46 45 44 42 40 37 35 32 29 26 23 20 18 16 15 14 12 12 11 11
20 9 16 21 35 24 38 32 23 13 17 3 52 59 56 55 51 49 45 45 42 38 38 36 35 40 44 44 45 48 50 50 49 46 44 41 38 34 30 28 25 23 21 20 18 17 16 15 15
39 26 20 43 64 52 46 37 26 6 4 22 26 51 49 49 48 43 38 35 30 37 39 37 40 41 44 44 44 48 50 53 53 52 49 45 43 40 36 33 34 30 27 25 23 22 20 20 19
18 37 42 47 76 52 18 53 26 22 22 24 47 49 53 54 54 47 42 43 48 53 45 37 37 45 43 42 43 38 44 54 56 56 53 50 47 44 43 35 29 27 26 31 30 27 20 15 15
35 32 53 62 69 60 55 34 25 36 39 40 34 20 32 54 47 41 38 48 56 64 56 45 39 43 47 44 39 39 38 41 53 55 53 49 48 48 47 41 37 35 33 26 26 22 18 21 19
33 43 49 60 57 60 25 29 35 41 41 47 48 44 26 35 43 35 32 37 46 59 64 54 46 39 52 50 47 47 44 36 36 49 48 49 47 45 48 44 42 41 36 29 21 20 23 26 30
52 30 31 38 35 20 41 22 23 46 47 56 65 56 52 40 52 55 51 46 43 51 59 56 52 43 52 58 53 50 45 38 39 41 42 43 46 47 44 45 46 41 40 36 32 32 32 32 34
10 12 20 28 20 28 21 38 14 39 48 58 67 68 62 60 62 53 51 59 52 43 60 58 59 54 47 54 57 57 54 49 49 48 45 45 44 44 44 45 44 40 36 38 39 41 41 40 36
11 18 24 19 20 15 18 43 21 49 58 49 65 75 74 77 66 73 60 44 46 41 49 60 66 63 52 48 50 53 50 52 50 58 55 54 46 41 41 39 38 41 39 34 36 36 34 36 40
27 21 15 24 13 19 34 48 29 54 65 62 66 63 59 78 77 63 66 51 40 41 39 62 65 68 58 52 49 50 47 47 48 51 51 56 48 46 44 43 41 40 38 40 36 35 38 40 41
27 21 36 34 29 37 39 39 23 33 45 47 61 72 54 50 46 81 65 52 42 50 43 63 75 73 65 60 55 55 55 53 49 50 51 45 48 48 44 44 40 37 37 36 32 35 35 37 40
38 40 46 37 32 22 31 34 23 18 17 24 35 36 29 32 47 32 56 61 53 52 49 57 74 71 69 63 58 59 60 57 52 52 51 48 46 44 42 41 42 41 42 40 39 37 38 41 43
46 44 47 44 22 32 22 21 18 36 38 42 35 35 35 44 55 51 55 69 67 60 63 61 67 71 76 69 64 61 56 52 48 51 50 50 47 51 50 50 46 41 38 38 39 39 41 43 41
47 43 39 43 27 33 22 29 22 18 27 24 39 51 53 65 75 74 60 74 72 65 62 74 68 72 81 76 73 70 73 70 65 61 53 50 57 55 54 49 48 44 42 40 39 38 37 37 40
54 22 42 39 31 33 27 12 41 29 32 31 23 52 64 82 86 87 65 79 78 73 74 80 78 80 85 82 78 70 69 68 64 58 56 59 57 54 50 52 49 45 40 38 36 34 35 36 39
44 37 46 38 21 24 40 35 50 24 30 23 28 56 58 56 53 71 86 74 89 80 76 78 81 81 83 82 76 68 69 74 71 68 65 66 59 57 51 48 44 39 36 34 33 35 36 38 41
45 44 29 25 28 32 40 25 36 21 37 41 38 52 63 56 33 58 53 81 92 83 82 82 82 85 82 75 67 65 68 71 71 70 71 65 57 50 48 43 36 33 31 34 34 37 39 40 41
42 47 31 38 35 37 39 34 38 40 36 64 67 63 66 67 75 63 59 79 91 93 86 85 85 84 77 64 57 60 66 70 70 70 71 65 55 49 43 40 33 31 33 33 35 37 38 42 45
38 43 46 45 37 16 22 26 34 48 42 36 52 74 78 69 79 42 45 66 84 85 79 84 85 75 67 60 52 63 68 74 71 74 62 59 55 48 40 37 34 30 33 35 36 36 39 42 44
45 20 23 13 41 53 40 38 20 38 52 52 44 49 69 75 50 51 60 61 66 75 81 82 80 72 60 57 58 66 74 73 78 69 66 61 56 48 38 33 31 31 32 34 35 39 42 45 48
30 40 35 25 23 13 34 41 39 39 28 18 16 55 48 49 52 52 63 67 70 79 85 81 74 66 56 56 59 69 73 74 76 72 66 59 49 39 33 29 26 26 31 34 38 40 42 46 46
29 34 34 31 42 10 25 19 18 40 51 38 28 39 50 27 12 13 49 74 81 86 86 82 72 64 57 58 65 71 78 79 75 70 63 52 42 33 26 21 22 27 29 33 36 37 42 43 39
Wind_Direction_850mb
284 280 302 316 38 77 259 254 227 278 70 82 87 94 100 71 152 169 154 186 187 159 166 167 168 167 165 164 164 163 159 158 153 144 129 123 120 118 112 107 106 105 106 108 110 112 114 114 112
286 308 290 265 121 288 278 251 264 225 119 98 100 95 74 77 107 130 150 165 178 163 167 166 167 169 167 166 167 167 168 168 168 159 143 131 129 129 123 117 110 108 110 109 107 107 106 111 115
283 293 291 163 205 208 241 286 184 88 99 96 84 95 89 115 127 140 158 165 164 163 163 164 168 170 170 169 169 171 173 175 178 172 157 143 142 145 141 134 121 109 110 116 120 115 118 122 119
298 267 251 189 262 261 251 286 252 87 51 48 101 73 113 132 139 150 163 164 156 150 162 167 171 172 172 172 172 176 177 179 183 180 172 158 155 157 163 158 138 126 124 122 121 128 130 133 127
292 271 251 257 262 270 273 252 47 84 125 14 79 120 96 122 133 143 158 168 162 149 159 170 176 176 177 176 176 178 181 182 185 187 182 175 170 173 177 174 163 156 135 132 131 129 137 149 139
279 248 320 276 275 276 285 253 128 336 157 174 105 111 113 137 139 139 153 169 183 165 160 167 180 183 183 182 182 183 185 187 188 191 193 192 188 191 190 190 187 181 177 179 167 144 164 208 201
232 284 254 266 271 290 301 175 105 223 132 171 149 118 142 149 149 146 152 174 188 198 195 187 187 189 189 188 189 189 191 193 193 194 201 203 204 205 206 204 204 198 200 204 210 219 230 228 249
262 144 273 267 278 282 298 216 164 198 56 72 171 152 167 155 151 150 153 173 187 199 211 201 199 194 194 193 195 196 197 200 198 199 206 212 215 216 219 218 220 216 218 219 222 221 231 239 247
272 268 255 261 271 274 293 271 169 158 94 48 91 124 165 152 154 156 160 174 191 206 216 212 206 198 198 199 200 201 203 204 205 204 209 216 221 224 226 230 229 230 230 234 240 240 241 248 260
237 236 241 249 265 278 307 327 180 188 132 120 108 119 137 152 163 167 175 188 204 220 222 218 209 204 200 204 206 208 207 208 209 211 212 216 223 229 233 237 241 240 239 242 245 250 255 263 267
241 243 252 263 270 284 296 311 305 288 280 176 176 151 159 170 176 186 203 217 233 224 216 214 208 205 205 207 210 213 214 214 214 215 215 216 222 228 232 235 238 244 247 247 248 252 259 262 260
269 263 249 260 261 271 287 299 301 286 278 265 226 217 199 180 185 194 205 224 225 221 222 215 212 205 202 204 204 209 217 220 219 218 218 217 219 227 233 239 244 248 250 256 254 251 251 253 252
264 267 271 268 270 266 275 283 266 283 283 290 303 230 197 202 196 208 227 226 224 221 223 218 214 207 201 205 214 218 220 222 224 222 223 219 220 224 232 234 239 246 251 253 259 247 258 267 268
258 263 265 267 268 273 260 265 285 274 291 293 294 293 246 211 199 211 227 247 246 222 220 221 211 208 204 206 214 218 223 216 215 216 221 221 217 219 225 232 237 243 245 257 250 255 251 258 260
258 270 282 270 270 272 295 278 256 278 270 277 283 284 276 261 243 245 251 240 244 210 222 220 212 205 205 209 212 218 227 216 218 212 212 217 217 224 228 234 237 239 244 247 245 237 246 241 247
293 283 256 254 268 280 273 267 274 266 241 248 260 271 272 264 256 243 238 247 230 212 213 216 218 208 205 213 212 212 222 214 215 218 217 216 220 225 230 232 240 241 239 236 236 233 237 242 253
223 243 244 253 218 239 243 265 245 251 253 244 244 246 250 254 254 241 240 212 209 227 212 215 219 210 206 216 218 215 217 220 209 212 217 218 220 221 224 227 234 234 235 244 246 239 239 248 257
231 243 250 251 251 243 244 252 247 236 232 240 247 250 250 249 250 240 224 215 225 223 220 219 221 211 209 211 214 213 219 222 217 207 210 209 215 222 225 223 226 230 230 239 242 241 247 254 264
256 253 242 243 232 240 260 268 255 256 234 229 232 244 251 264 285 245 225 220 217 219 226 220 217 211 207 206 209 214 217 217 216 204 203 204 209 216 219 224 221 222 227 236 240 245 251 268 279
235 254 265 275 275 245 246 260 263 276 247 232 231 233 263 293 278 235 212 205 210 219 213 214 214 218 211 216 217 223 212 208 214 206 204 200 197 205 216 216 221 224 219 218 228 242 258 266 272
229 233 242 249 271 278 269 275 281 279 284 277 274 275 262 268 276 277 214 212 209 209 209 205 210 222 216 218 217 212 208 209 211 208 206 202 199 204 214 216 214 214 217 227 239 249 259 266 275
236 232 245 247 238 246 241 271 262 245 264 278 264 264 263 264 263 261 223 209 206 214 210 214 207 220 222 221 221 221 210 208 213 213 210 207 205 207 212 215 216 224 232 236 246 256 266 272 279
246 218 244 255 254 263 257 253 252 246 253 249 264 260 255 254 257 256 236 222 217 216 214 214 212 216 221 217 222 221 211 215 216 207 208 209 210 214 217 221 221 224 235 245 254 261 269 277 282
256 233 248 258 249 244 243 227 258 237 239 245 247 263 263 258 258 255 251 231 218 209 210 211 211 212 214 216 219 226 217 214 210 211 211 206 208 209 213 215 220 230 241 251 259 270 277 281 284
229 230 244 233 234 238 243 238 242 231 227 242 248 251 260 273 288 255 256 224 210 203 208 210 211 213 215 216 219 223 221 219 218 212 206 203 206 207 213 223 228 238 247 261 269 276 281 286 291
229 233 229 235 233 234 239 234 232 250 248 263 264 259 263 271 277 286 236 220 200 202 205 211 211 214 216 217 222 222 218 217 217 214 213 205 204 209 214 224 236 242 258 272 281 282 286 290 292
228 229 231 242 249 246 232 230 236 247 248 243 244 253 262 265 271 241 195 199 196 198 206 215 214 214 216 222 222 215 216 217 215 202 197 201 207 211 215 229 239 254 268 274 281 288 290 292 295
232 238 247 252 233 238 235 231 219 235 243 246 247 247 246 251 261 227 207 201 205 206 210 213 215 213 216 224 219 213 212 207 198 196 196 201 205 210 219 231 245 262 274 281 288 293 297 299 299
232 237 235 242 213 221 234 240 222 241 249 233 265 249 243 248 244 219 202 206 207 208 210 205 206 208 214 212 207 204 200 196 197 199 200 203 204 210 222 239 259 273 280 290 294 293 297 299 302
286 268 264 235 247 227 231 237 231 229 243 247 254 270 282 275 231 252 219 203 202 208 206 204 207 208 207 201 196 193 190 194 197 201 201 201 204 214 231 250 269 280 287 287 291 298 300 304 311